Regional Weather Roundup
Issued by NWS

Home | Current Version | Previous Version | Text Only | Print | Product List | Glossary Off
Versions: 1 2 3 4 5 6 7 8 9 10 11 12 13 14 15 16 17 18 19 20 21 22 23 24 25 26 27 28 29 30 31 32 33 34 35 36 37 38 39 40 41 42 43 44 45 46 47 48 49 50

000
ASUS43 KIND 272159
RWRIN

WEATHER ROUNDUP FOR INDIANA
NATIONAL WEATHER SERVICE INDIANAPOLIS IN
500 PM EST MON FEB 27 2017

NOTE: "FAIR" INDICATES FEW OR NO CLOUDS BELOW 12,000 FEET WITH NO
SIGNIFICANT WEATHER AND/OR OBSTRUCTIONS TO VISIBILITY.

* - STATION DOES NOT REPORT WEATHER SUCH AS PRECIPITATION OR FOG.

+ - STATION NOT QUALITY CONTROLLED BY THE NATIONAL WEATHER SERVICE.
    USE DATA WITH CAUTION...ESPECIALLY DEWPOINT AND RELATIVE
    HUMIDITY OBSERVATIONS.

INZ001>003-010>013-019-020-272300-
NORTHWEST INDIANA

CITY           SKY/WX    TMP DP  RH WIND       PRES   REMARKS
GARY /AIRPORT/ MOSUNNY   55  28  35 S7        30.09F
KNOX *+        PTSUNNY   50  10  20 SE9       30.12F

$$

LMZ046-743>745-272300-
SOUTHERN LAKE MICHIGAN

STATION/POSITION TIME  TEMP    WIND        PRES    WAVE
                       AIR SEA DIR/SP/G            HT
                 (UTC) (F)     (DEG/KT/KT) (MB)    (FT)
BURNS HARBOR     2140   52     170/  8/ 13 1019.6F
MICHIGAN CITY    2130   45      60/  4/  8   N/A

$$

INZ004-005-014>016-021>024-272300-
NORTH CENTRAL INDIANA

CITY           SKY/WX    TMP DP  RH WIND       PRES   REMARKS
ELKHART        MOSUNNY   50  32  50 S7        30.14F
GOSHEN         CLOUDY    50  32  50 SE7       30.14F
SOUTH BEND     PTSUNNY   49  33  54 S8        30.14S

$$

INZ006>009-017-018-025>027-272300-
NORTHEAST INDIANA

CITY           SKY/WX    TMP DP  RH WIND       PRES   REMARKS
ANGOLA *+      CLOUDY    48  36  61 S10       30.15F
FORT WAYNE     PTSUNNY   49  37  63 S13       30.17S
KENDALLVILLE + CLOUDY    48  35  59 S7        30.16S

$$

INZ028-029-035-036-043>045-051>053-272300-
WEST CENTRAL INDIANA

CITY           SKY/WX    TMP DP  RH WIND       PRES   REMARKS
GREENCASTLE +  CLOUDY    50  39  66 SE10      30.12F
LAFAYETTE      CLOUDY    53  39  59 SE9       30.10F
TERRE HAUTE    CLOUDY    54  41  61 SE7       30.11F

$$

INZ030>032-037>040-046>048-054>057-064-065-272300-
CENTRAL INDIANA

CITY           SKY/WX    TMP DP  RH WIND       PRES   REMARKS
COLUMBUS       CLOUDY    50  45  81 S9        30.17S
GREENWOOD *+   CLOUDY    49  43  77 S7        30.16S
INDIANAPOLIS   PTSUNNY   50  40  68 SE12      30.14S
-EAGLE CREEK   CLOUDY    51  39  63 SE8       30.13F
KOKOMO +       PTSUNNY   51  39  63 SE13      30.14F
MT COMFORT *+  CLOUDY    48  41  76 SE6       30.16S
SHELBYVILLE    CLOUDY    51  41  68 S9        30.16S

$$

INZ033-034-041-042-049-050-058-059-272300-
EAST CENTRAL INDIANA

CITY           SKY/WX    TMP DP  RH WIND       PRES   REMARKS
MUNCIE         PTSUNNY   50  38  63 S7        30.16F

$$

INZ060-061-067>069-081>083-085>088-272300-
SOUTHWEST INDIANA

CITY           SKY/WX    TMP DP  RH WIND       PRES   REMARKS
EVANSVILLE     SUNNY     59  45  59 E8        30.12S
HUNTINGBURG *+ CLOUDY    54  46  74 NE6       30.13F

$$

INZ062-063-066-070>080-084-089>092-272300-
SOUTH CENTRAL AND SOUTHEAST INDIANA

CITY           SKY/WX    TMP DP  RH WIND       PRES   REMARKS
BLOOMINGTON    CLOUDY    50  42  74 SE8       30.14S
MADISON *+     PTSUNNY   52  41  66 SE3       30.19S

$$




USA.gov is the U.S. government's official web portal to all federal, state and local government web resources and services.